FW2418 Weather Reports


time (UTC)temp
C
wind
direction
speed
KPH
gust
KPH
rain 1hr
cm
rain 24hr
cm
rain mn
cm
humidity
%
barometer
mb
20260506235426 28 142 1.6 11.3 0.00 0.00 0.00 56 1012.6
20260506234425 28 169 3.2 12.9 0.00 0.00 0.00 55 1012.3
20260506233424 29 173 1.6 14.5 0.00 0.00 0.00 54 1012.3
20260506232424 30 118 4.8 14.5 0.00 0.00 0.00 53 1012.3
20260506231422 30 154 3.2 11.3 0.00 0.00 0.00 53 1012.3
20260506230421 30 179 4.8 16.1 0.00 0.00 0.00 52 1012.3
20260506225350 30 187 6.4 16.1 0.00 0.00 0.00 51 1012.3
20260506224349 31 153 4.8 19.3 0.00 0.00 0.00 51 1012.3
20260506223348 31 163 3.2 12.9 0.00 0.00 0.00 53 1012.3
20260506222347 31 119 3.2 14.5 0.00 0.00 0.00 52 1012.3
20260506221346 32 103 3.2 8.0 0.00 0.00 0.00 49 1012.3
20260506220345 32 133 4.8 9.7 0.00 0.00 0.00 42 1012.3
20260506215344 32 110 1.6 9.7 0.00 0.00 0.00 41 1012.3
20260506214343 32 220 1.6 9.7 0.00 0.00 0.00 41 1012.3
20260506213342 33 182 3.2 9.7 0.00 0.00 0.00 42 1012.3
20260506212341 32 207 1.6 8.0 0.00 0.00 0.00 43 1012.3
20260506211340 32 167 3.2 9.7 0.00 0.00 0.00 42 1012.3
20260506210308 32 252 1.6 12.9 0.00 0.00 0.00 42 1012.3
20260506205307 33 187 3.2 12.9 0.00 0.00 0.00 41 1012.3
20260506204306 33 196 3.2 8.0 0.00 0.00 0.00 41 1012.3
20260506203203 33 256 1.6 8.0 0.00 0.00 0.00 41 1012.6
20260506202202 33 195 1.6 11.3 0.00 0.00 0.00 40 1012.6
20260506201201 33 178 3.2 11.3 0.00 0.00 0.00 39 1012.6
20260506200200 33 161 4.8 9.7 0.00 0.00 0.00 39 1012.6
20260506195159 34 187 1.6 9.7 0.00 0.00 0.00 39 1012.6
20260506194158 34 177 4.8 11.3 0.00 0.00 0.00 37 1013.0
20260506193157 33 176 4.8 11.3 0.00 0.00 0.00 38 1013.0
20260506192156 33 178 3.2 12.9 0.00 0.00 0.00 39 1013.0
20260506191155 33 234 3.2 12.9 0.00 0.00 0.00 42 1013.3
20260506190154 33 157 1.6 12.9 0.00 0.00 0.00 42 1013.3
20260506185153 33 201 3.2 9.7 0.00 0.00 0.00 42 1013.3
20260506184153 33 285 3.2 9.7 0.00 0.00 0.00 41 1013.7
20260506183120 33 183 1.6 9.7 0.00 0.00 0.00 42 1013.7
20260506182119 33 150 1.6 11.3 0.00 0.00 0.00 44 1013.7
20260506181118 33 152 1.6 11.3 0.00 0.00 0.00 45 1014.0
20260506180118 33 199 3.2 9.7 0.00 0.00 0.00 45 1014.0
20260506175117 33 19 3.2 12.9 0.00 0.00 0.00 45 1014.0
20260506174115 33 115 4.8 12.9 0.00 0.00 0.00 46 1014.3
20260506173115 32 143 3.2 9.7 0.00 0.00 0.00 48 1014.3
20260506172114 32 112 3.2 11.3 0.00 0.00 0.00 50 1014.3
20260506171113 32 256 1.6 11.3 0.00 0.00 0.00 50 1014.7
20260506170112 32 139 3.2 8.0 0.00 0.00 0.00 50 1014.7
20260506165111 31 183 4.8 9.7 0.00 0.00 0.00 50 1015.0
20260506164039 31 170 3.2 9.7 0.00 0.00 0.00 51 1015.0
20260506163007 31 155 1.6 12.9 0.00 0.00 0.00 51 1015.0
20260506161935 30 188 3.2 12.9 0.00 0.00 0.00 52 1015.0
20260506160934 30 159 3.2 9.7 0.00 0.00 0.00 53 1015.0
20260506155933 30 172 3.2 9.7 0.00 0.00 0.00 56 1015.4
20260506154932 30 177 1.6 11.3 0.00 0.00 0.00 57 1015.3
20260506153931 30 137 4.8 11.3 0.00 0.00 0.00 58 1015.3
20260506152930 29 176 1.6 12.9 0.00 0.00 0.00 63 1015.0
20260506151929 28 227 3.2 14.5 0.00 0.00 0.00 65 1015.0
20260506150856 28 165 3.2 14.5 0.00 0.00 0.00 65 1015.0
20260506145824 28 189 3.2 8.0 0.00 0.00 0.00 66 1015.0
20260506144823 28 177 3.2 12.9 0.00 0.00 0.00 69 1015.3
20260506143822 27 178 1.6 14.5 0.00 0.00 0.00 71 1015.0
20260506142750 27 140 3.2 11.3 0.00 0.00 0.00 72 1015.0
20260506141749 27 186 4.8 12.9 0.00 0.00 0.00 72 1015.0
20260506140748 26 181 6.4 11.3 0.00 0.00 0.00 75 1015.3
20260506135747 26 186 3.2 11.3 0.00 0.00 0.00 76 1015.0
20260506134746 26 184 4.8 11.3 0.00 0.00 0.00 78 1015.0
20260506133715 26 206 1.6 9.7 0.00 0.00 0.00 79 1015.0
20260506132713 25 160 1.6 8.0 0.00 0.00 0.00 80 1014.7
20260506131712 25 163 4.8 8.0 0.00 0.00 0.00 82 1015.0
20260506130711 24 163 3.2 8.0 0.00 0.00 0.00 84 1015.0
20260506125710 23 169 3.2 8.0 0.00 0.00 0.00 86 1014.7
20260506124709 22 182 3.2 4.8 0.00 0.00 0.00 89 1014.7
20260506123708 21 167 0.0 1.6 0.00 0.00 0.00 92 1014.7
20260506122707 21 156 0.0 0.0 0.00 0.00 0.00 93 1014.7
20260506121604 20 124 0.0 0.0 0.00 0.00 0.00 94 1014.6
20260506120603 18 124 0.0 0.0 0.00 0.00 0.00 97 1014.6
20260506115602 17 124 0.0 0.0 0.00 0.00 0.00 98 1014.3
20260506114601 17 124 0.0 0.0 0.00 0.00 0.00 98 1014.3
20260506113600 16 124 0.0 0.0 0.00 0.00 0.00 98 1014.3
20260506112559 16 124 0.0 0.0 0.00 0.00 0.00 97 1014.3
20260506111559 16 124 0.0 0.0 0.00 0.00 0.00 98 1014.0
20260506110558 15 124 0.0 0.0 0.00 0.00 0.00 97 1014.0
20260506105557 15 124 0.0 0.0 0.00 0.00 0.00 97 1013.6
20260506104556 15 124 0.0 0.0 0.00 0.00 0.00 97 1013.6
20260506103555 15 124 0.0 0.0 0.00 0.00 0.00 97 1013.6
20260506102554 15 124 0.0 0.0 0.00 0.00 0.00 97 1013.6
20260506101553 15 124 0.0 0.0 0.00 0.00 0.00 97 1013.6
20260506100553 15 124 0.0 0.0 0.00 0.00 0.00 97 1013.6
20260506095521 15 124 0.0 0.0 0.00 0.00 0.00 97 1013.6
20260506094520 15 124 0.0 0.0 0.00 0.00 0.00 96 1013.6
20260506093519 15 124 0.0 0.0 0.00 0.00 0.00 97 1013.3
20260506092518 15 124 0.0 0.0 0.00 0.00 0.00 97 1013.6
20260506091517 15 124 0.0 0.0 0.00 0.00 0.00 96 1013.3
20260506090516 15 124 0.0 0.0 0.00 0.00 0.00 96 1013.3
20260506085515 15 124 0.0 0.0 0.00 0.00 0.00 96 1013.3
20260506084515 15 124 0.0 0.0 0.00 0.00 0.00 96 1013.3
20260506083514 15 124 0.0 0.0 0.00 0.00 0.00 96 1013.3
20260506082513 15 124 0.0 0.0 0.00 0.00 0.00 96 1013.3
20260506081513 15 124 0.0 0.0 0.00 0.00 0.00 96 1013.3
20260506080441 15 124 0.0 0.0 0.00 0.00 0.00 96 1013.3
20260506073438 15 124 0.0 0.0 0.00 0.00 0.00 95 1013.6
20260506072437 15 124 0.0 0.0 0.00 0.00 0.00 95 1013.6
20260506071436 15 124 0.0 0.0 0.00 0.00 0.00 95 1013.3
20260506070435 16 124 0.0 0.0 0.00 0.00 0.00 95 1013.3
20260506062401 16 124 0.0 0.0 0.00 0.00 0.00 94 1014.0
20260506061400 16 124 0.0 0.0 0.00 0.00 0.00 94 1014.0
20260506060359 16 124 0.0 0.0 0.00 0.00 0.00 94 1014.0
20260506051252 17 124 0.0 0.0 0.00 0.00 0.00 91 1014.3
20260506050251 17 124 0.0 0.0 0.00 0.00 0.00 91 1014.3
20260506044249 17 124 0.0 0.0 0.00 0.00 0.00 89 1014.7
20260506043248 18 124 0.0 0.0 0.00 0.00 0.00 89 1014.7
20260506042216 18 124 0.0 0.0 0.00 0.00 0.00 88 1014.7
20260506041113 18 124 0.0 0.0 0.00 0.00 0.00 88 1014.7
20260506040112 18 124 0.0 0.0 0.00 0.00 0.00 87 1014.3
20260506035111 18 124 0.0 0.0 0.00 0.00 0.00 86 1014.3
20260506034111 18 124 0.0 0.0 0.00 0.00 0.00 86 1014.3
20260506033039 19 124 0.0 0.0 0.00 0.00 0.00 82 1014.0
20260506032038 19 124 0.0 0.0 0.00 0.00 0.00 83 1014.0
20260506031037 19 124 0.0 0.0 0.00 0.00 0.00 81 1014.0
20260506030036 20 124 0.0 0.0 0.00 0.00 0.00 80 1014.0
20260506025036 20 124 0.0 1.6 0.00 0.00 0.00 79 1014.0
20260506024004 20 139 0.0 1.6 0.00 0.00 0.00 79 1014.0
20260506023003 20 139 0.0 1.6 0.00 0.00 0.00 77 1014.0
20260506022003 20 139 0.0 1.6 0.00 0.00 0.00 76 1014.0
20260506021002 20 93 0.0 1.6 0.00 0.00 0.00 74 1014.0
20260506015929 20 93 1.6 1.6 0.00 0.00 0.00 73 1014.0
20260506014857 20 89 0.0 0.0 0.00 0.00 0.00 73 1014.0
20260506013825 21 89 0.0 0.0 0.00 0.00 0.00 71 1013.6
20260506012824 21 89 0.0 0.0 0.00 0.00 0.00 69 1014.0
20260506011823 21 89 0.0 1.6 0.00 0.00 0.00 67 1013.6
20260506010822 21 89 0.0 1.6 0.00 0.00 0.00 66 1013.6
20260506005821 22 89 0.0 1.6 0.00 0.00 0.00 65 1013.6
20260506004821 22 126 0.0 3.2 0.00 0.00 0.00 64 1013.3
20260506003820 22 125 1.6 3.2 0.00 0.00 0.00 63 1013.3
20260506002819 22 125 1.6 6.4 0.00 0.00 0.00 62 1013.0
20260506001818 23 115 1.6 6.4 0.00 0.00 0.00 61 1013.0
20260506000817 23 53 1.6 8.0 0.00 0.00 0.00 62 1012.9